Location: Abraham Lincoln Continuation High School
(33.9711°N, 117.3662°W)
Time: 00:49:04
(UTC+00:00)

Iridium 4 Rocket - Pass Details

Date: 26 January 2021
Orbit: 583 x 906 km, 86.9° (Epoch: 03 March)

Event Time Altitude Azimuth Distance (km) Brightness Sun altitude
Rises 13:51:59 0° 150° (SSE) 3,400 7.6 -12.3°
Reaches altitude 10° 13:54:39 10° 139° (SE) 2,506 7.1 -11.7°
Maximum altitude 13:59:25 28° 82° (E) 1,613 6.0 -10.8°
Drops below altitude 10° 14:04:19 10° 26° (NNE) 2,591 6.4 -9.8°
Sets 14:07:07 0° 15° (NNE) 3,537 6.9 -9.2°
